| time (UTC) | temp F | wind direction | speed MPH | gust MPH | rain 1hr in | rain 24hr in | rain mn in | humidity % | barometer mb |
| 20260503213648 | 77 | 340 | 0.0 | 3.0 | 0.00 | 0.00 | 0.00 | 13 | 1006.1 |
| 20260503212534 | 77 | 263 | 1.0 | 5.0 | 0.00 | 0.00 | 0.00 | 12 | 1006.2 |
| 20260503211420 | 77 | 235 | 2.0 | 7.0 | 0.00 | 0.00 | 0.00 | 14 | 1006.4 |
| 20260503210910 | 77 | 256 | 2.0 | 7.0 | 0.00 | 0.00 | 0.00 | 14 | 1006.5 |
| 20260503205754 | 78 | 207 | 0.0 | 9.0 | 0.00 | 0.00 | 0.00 | 13 | 1006.8 |
| 20260503205250 | 78 | 223 | 1.0 | 9.0 | 0.00 | 0.00 | 0.00 | 12 | 1006.8 |
| 20260503204751 | 78 | 266 | 1.0 | 9.0 | 0.00 | 0.00 | 0.00 | 15 | 1006.9 |
| 20260503203655 | 78 | 227 | 1.0 | 5.0 | 0.00 | 0.00 | 0.00 | 12 | 1007.1 |
| 20260503203159 | 77 | 324 | 1.0 | 5.0 | 0.00 | 0.00 | 0.00 | 13 | 1007.3 |
| 20260503202706 | 77 | 235 | 2.0 | 5.0 | 0.00 | 0.00 | 0.00 | 13 | 1007.3 |
| 20260503202209 | 77 | 287 | 3.0 | 8.0 | 0.00 | 0.00 | 0.00 | 13 | 1007.4 |
| 20260503201715 | 78 | 245 | 2.0 | 8.0 | 0.00 | 0.00 | 0.00 | 13 | 1007.4 |
| 20260503201223 | 78 | 270 | 2.0 | 8.0 | 0.00 | 0.00 | 0.00 | 14 | 1007.5 |
| 20260503200723 | 78 | 267 | 1.0 | 8.0 | 0.00 | 0.00 | 0.00 | 13 | 1007.6 |
| 20260503195556 | 78 | 199 | 2.0 | 8.0 | 0.00 | 0.00 | 0.00 | 13 | 1007.9 |
| 20260503194427 | 78 | 291 | 1.0 | 9.0 | 0.00 | 0.00 | 0.00 | 13 | 1008.0 |
| 20260503193923 | 78 | 291 | 2.0 | 9.0 | 0.00 | 0.00 | 0.00 | 14 | 1008.1 |
| 20260503193424 | 77 | 187 | 2.0 | 9.0 | 0.00 | 0.00 | 0.00 | 13 | 1008.2 |
| 20260503192916 | 76 | 52 | 1.0 | 6.0 | 0.00 | 0.00 | 0.00 | 15 | 1008.2 |
| 20260503191143 | 75 | 227 | 2.0 | 7.0 | 0.00 | 0.00 | 0.00 | 14 | 1008.6 |
| 20260503190635 | 75 | 232 | 1.0 | 7.0 | 0.00 | 0.00 | 0.00 | 16 | 1008.7 |
| 20260503190127 | 75 | 237 | 1.0 | 7.0 | 0.00 | 0.00 | 0.00 | 17 | 1008.8 |
| 20260503185015 | 74 | 315 | 2.0 | 7.0 | 0.00 | 0.00 | 0.00 | 16 | 1008.9 |
| 20260503183844 | 75 | 240 | 2.0 | 7.0 | 0.00 | 0.00 | 0.00 | 15 | 1009.0 |
| 20260503183352 | 76 | 170 | 1.0 | 7.0 | 0.00 | 0.00 | 0.00 | 15 | 1009.1 |
| 20260503182856 | 76 | 261 | 2.0 | 7.0 | 0.00 | 0.00 | 0.00 | 16 | 1009.2 |
| 20260503182402 | 75 | 262 | 3.0 | 13.0 | 0.00 | 0.00 | 0.00 | 15 | 1009.3 |
| 20260503181859 | 75 | 265 | 2.0 | 13.0 | 0.00 | 0.00 | 0.00 | 16 | 1009.3 |
| 20260503180744 | 76 | 187 | 5.0 | 13.0 | 0.00 | 0.00 | 0.00 | 14 | 1009.4 |
| 20260503180239 | 75 | 206 | 5.0 | 12.0 | 0.00 | 0.00 | 0.00 | 16 | 1009.5 |
| 20260503175721 | 76 | 218 | 4.0 | 12.0 | 0.00 | 0.00 | 0.00 | 16 | 1009.4 |
| 20260503175218 | 75 | 182 | 4.0 | 12.0 | 0.00 | 0.00 | 0.00 | 16 | 1009.5 |
| 20260503174716 | 75 | 266 | 4.0 | 12.0 | 0.00 | 0.00 | 0.00 | 17 | 1009.6 |
| 20260503174205 | 75 | 212 | 4.0 | 11.0 | 0.00 | 0.00 | 0.00 | 17 | 1009.6 |
| 20260503173652 | 74 | 190 | 4.0 | 11.0 | 0.00 | 0.00 | 0.00 | 18 | 1009.6 |
| 20260503173140 | 74 | 253 | 4.0 | 11.0 | 0.00 | 0.00 | 0.00 | 18 | 1009.8 |
| 20260503172635 | 74 | 181 | 5.0 | 11.0 | 0.00 | 0.00 | 0.00 | 16 | 1009.9 |
| 20260503172121 | 73 | 246 | 4.0 | 11.0 | 0.00 | 0.00 | 0.00 | 17 | 1010.0 |
| 20260503171619 | 73 | 260 | 4.0 | 10.0 | 0.00 | 0.00 | 0.00 | 18 | 1010.0 |
| 20260503171116 | 73 | 239 | 4.0 | 12.0 | 0.00 | 0.00 | 0.00 | 18 | 1010.0 |
| 20260503170607 | 73 | 259 | 5.0 | 12.0 | 0.00 | 0.00 | 0.00 | 18 | 1010.0 |
| 20260503160118 | 69 | 249 | 4.0 | 14.0 | 0.00 | 0.00 | 0.00 | 23 | 1010.5 |
| 20260503150920 | 65 | 245 | 4.0 | 14.0 | 0.00 | 0.00 | 0.00 | 25 | 1011.0 |
| 20260503150415 | 65 | 217 | 4.0 | 14.0 | 0.00 | 0.00 | 0.00 | 26 | 1011.1 |
| 20260503130933 | 52 | 269 | 0.0 | 0.0 | 0.00 | 0.00 | 0.00 | 45 | 1011.0 |
| 20260503130438 | 52 | 253 | 0.0 | 0.0 | 0.00 | 0.00 | 0.00 | 44 | 1010.9 |
| 20260503110758 | 49 | 298 | 0.0 | 0.0 | 0.00 | 0.00 | 0.00 | 47 | 1011.5 |
| 20260503110306 | 49 | 298 | 0.0 | 0.0 | 0.00 | 0.00 | 0.00 | 46 | 1011.5 |
| 20260503090338 | 50 | 226 | 0.0 | 2.0 | 0.00 | 0.00 | 0.00 | 48 | 1011.6 |
| 20260503080544 | 50 | 263 | 0.0 | 0.0 | 0.00 | 0.00 | 0.00 | 48 | 1011.8 |
| 20260503072506 | 53 | 263 | 0.0 | 0.0 | 0.00 | 0.00 | 0.00 | 43 | 1011.8 |
| 20260503071949 | 53 | 263 | 0.0 | 0.0 | 0.00 | 0.00 | 0.00 | 41 | 1011.8 |
| 20260503071430 | 52 | 263 | 0.0 | 0.0 | 0.00 | 0.00 | 0.00 | 42 | 1011.7 |
| 20260503070930 | 52 | 263 | 0.0 | 0.0 | 0.00 | 0.00 | 0.00 | 43 | 1011.8 |
| 20260503060224 | 55 | 268 | 0.0 | 0.0 | 0.00 | 0.00 | 0.00 | 40 | 1011.9 |
| 20260503054649 | 55 | 268 | 0.0 | 0.0 | 0.00 | 0.00 | 0.00 | 40 | 1012.0 |
| 20260503053533 | 56 | 268 | 0.0 | 0.0 | 0.00 | 0.00 | 0.00 | 39 | 1011.9 |
| 20260503053030 | 56 | 268 | 0.0 | 0.0 | 0.00 | 0.00 | 0.00 | 38 | 1011.9 |
| 20260503052519 | 57 | 268 | 0.0 | 0.0 | 0.00 | 0.00 | 0.00 | 37 | 1011.8 |
| 20260503052008 | 57 | 268 | 0.0 | 0.0 | 0.00 | 0.00 | 0.00 | 36 | 1011.9 |
| 20260503050841 | 58 | 268 | 0.0 | 0.0 | 0.00 | 0.00 | 0.00 | 34 | 1012.0 |
| 20260503050341 | 59 | 268 | 0.0 | 0.0 | 0.00 | 0.00 | 0.00 | 33 | 1012.0 |
| 20260503045827 | 60 | 268 | 0.0 | 0.0 | 0.00 | 0.00 | 0.00 | 32 | 1012.1 |
| 20260503045322 | 61 | 266 | 0.0 | 0.0 | 0.00 | 0.00 | 0.00 | 31 | 1012.0 |
| 20260503044208 | 61 | 270 | 0.0 | 3.0 | 0.00 | 0.00 | 0.00 | 30 | 1012.1 |
| 20260503043649 | 61 | 269 | 1.0 | 3.0 | 0.00 | 0.00 | 0.00 | 30 | 1012.0 |
| 20260503043145 | 61 | 255 | 1.0 | 3.0 | 0.00 | 0.00 | 0.00 | 30 | 1012.1 |
| 20260503042633 | 61 | 268 | 1.0 | 3.0 | 0.00 | 0.00 | 0.00 | 30 | 1012.1 |
| 20260503042119 | 61 | 261 | 1.0 | 2.0 | 0.00 | 0.00 | 0.00 | 30 | 1012.0 |
| 20260503041618 | 61 | 263 | 0.0 | 3.0 | 0.00 | 0.00 | 0.00 | 30 | 1012.1 |
| 20260503041108 | 61 | 277 | 1.0 | 3.0 | 0.00 | 0.00 | 0.00 | 30 | 1012.0 |
| 20260503040554 | 61 | 247 | 1.0 | 3.0 | 0.00 | 0.00 | 0.00 | 30 | 1012.0 |
| 20260503040035 | 61 | 263 | 0.0 | 3.0 | 0.00 | 0.00 | 0.00 | 30 | 1012.0 |
| 20260503035533 | 62 | 271 | 0.0 | 3.0 | 0.00 | 0.00 | 0.00 | 30 | 1011.9 |
| 20260503035038 | 62 | 273 | 0.0 | 3.0 | 0.00 | 0.00 | 0.00 | 30 | 1012.0 |
| 20260503034533 | 62 | 252 | 0.0 | 1.0 | 0.00 | 0.00 | 0.00 | 30 | 1012.0 |
| 20260503034029 | 62 | 276 | 0.0 | 0.0 | 0.00 | 0.00 | 0.00 | 30 | 1011.9 |
| 20260503033537 | 62 | 277 | 0.0 | 0.0 | 0.00 | 0.00 | 0.00 | 30 | 1011.8 |
| 20260503033033 | 62 | 276 | 0.0 | 0.0 | 0.00 | 0.00 | 0.00 | 29 | 1011.8 |
| 20260503032522 | 62 | 275 | 0.0 | 0.0 | 0.00 | 0.00 | 0.00 | 30 | 1011.8 |
| 20260503031409 | 63 | 275 | 0.0 | 0.0 | 0.00 | 0.00 | 0.00 | 30 | 1011.8 |
| 20260503030849 | 63 | 275 | 0.0 | 0.0 | 0.00 | 0.00 | 0.00 | 29 | 1011.7 |
| 20260503030332 | 64 | 275 | 0.0 | 0.0 | 0.00 | 0.00 | 0.00 | 29 | 1011.7 |
| 20260503025826 | 65 | 275 | 0.0 | 0.0 | 0.00 | 0.00 | 0.00 | 28 | 1011.7 |
| 20260503025314 | 65 | 275 | 0.0 | 0.0 | 0.00 | 0.00 | 0.00 | 27 | 1011.7 |
| 20260503024815 | 65 | 275 | 0.0 | 0.0 | 0.00 | 0.00 | 0.00 | 26 | 1011.7 |
| 20260503024316 | 65 | 279 | 0.0 | 0.0 | 0.00 | 0.00 | 0.00 | 26 | 1011.7 |
| 20260503023821 | 65 | 286 | 0.0 | 0.0 | 0.00 | 0.00 | 0.00 | 26 | 1011.6 |
| 20260503023329 | 66 | 286 | 0.0 | 0.0 | 0.00 | 0.00 | 0.00 | 26 | 1011.6 |
| 20260503022822 | 66 | 287 | 0.0 | 0.0 | 0.00 | 0.00 | 0.00 | 26 | 1011.6 |
| 20260503022330 | 67 | 286 | 0.0 | 0.0 | 0.00 | 0.00 | 0.00 | 25 | 1011.5 |
| 20260503021840 | 67 | 286 | 0.0 | 0.0 | 0.00 | 0.00 | 0.00 | 25 | 1011.5 |
| 20260503021347 | 68 | 286 | 0.0 | 0.0 | 0.00 | 0.00 | 0.00 | 24 | 1011.5 |
| 20260503020836 | 68 | 322 | 0.0 | 2.0 | 0.00 | 0.00 | 0.00 | 22 | 1011.5 |
| 20260503020344 | 69 | 322 | 0.0 | 4.0 | 0.00 | 0.00 | 0.00 | 21 | 1011.4 |
| 20260503015217 | 69 | 322 | 1.0 | 5.0 | 0.00 | 0.00 | 0.00 | 21 | 1011.4 |
| 20260503014701 | 69 | 322 | 1.0 | 5.0 | 0.00 | 0.00 | 0.00 | 21 | 1011.5 |
| 20260503014201 | 70 | 322 | 2.0 | 5.0 | 0.00 | 0.00 | 0.00 | 21 | 1011.5 |
| 20260503013642 | 70 | 321 | 1.0 | 5.0 | 0.00 | 0.00 | 0.00 | 20 | 1011.5 |
| 20260503013150 | 70 | 337 | 1.0 | 5.0 | 0.00 | 0.00 | 0.00 | 19 | 1011.4 |
| 20260503012634 | 70 | 332 | 2.0 | 5.0 | 0.00 | 0.00 | 0.00 | 20 | 1011.4 |
| 20260503012124 | 70 | 325 | 2.0 | 5.0 | 0.00 | 0.00 | 0.00 | 20 | 1011.5 |
| 20260503011632 | 70 | 318 | 1.0 | 4.0 | 0.00 | 0.00 | 0.00 | 19 | 1011.5 |
| 20260503011116 | 70 | 341 | 0.0 | 6.0 | 0.00 | 0.00 | 0.00 | 20 | 1011.4 |
| 20260503010603 | 71 | 325 | 0.0 | 6.0 | 0.00 | 0.00 | 0.00 | 20 | 1011.5 |
| 20260503010052 | 71 | 320 | 1.0 | 8.0 | 0.00 | 0.00 | 0.00 | 20 | 1011.5 |
| 20260503005551 | 71 | 322 | 1.0 | 8.0 | 0.00 | 0.00 | 0.00 | 20 | 1011.4 |
| 20260503004410 | 71 | 324 | 3.0 | 8.0 | 0.00 | 0.00 | 0.00 | 19 | 1011.5 |
| 20260503003906 | 71 | 322 | 3.0 | 8.0 | 0.00 | 0.00 | 0.00 | 19 | 1011.5 |
| 20260503003407 | 71 | 333 | 2.0 | 8.0 | 0.00 | 0.00 | 0.00 | 19 | 1011.5 |
| 20260503002249 | 72 | 333 | 2.0 | 8.0 | 0.00 | 0.00 | 0.00 | 18 | 1011.5 |
| 20260503001141 | 73 | 321 | 1.0 | 5.0 | 0.00 | 0.00 | 0.00 | 18 | 1011.5 |
| 20260503000627 | 73 | 6 | 1.0 | 6.0 | 0.00 | 0.00 | 0.00 | 17 | 1011.5 |
| 20260503000121 | 73 | 320 | 2.0 | 6.0 | 0.00 | 0.00 | 0.00 | 17 | 1011.5 |
| 20260502235607 | 74 | 345 | 2.0 | 7.0 | 0.00 | 0.00 | 0.00 | 16 | 1011.6 |
| 20260502235056 | 73 | 345 | 1.0 | 7.0 | 0.00 | 0.00 | 0.00 | 17 | 1011.6 |
| 20260502234538 | 74 | 338 | 2.0 | 7.0 | 0.00 | 0.00 | 0.00 | 18 | 1011.6 |
| 20260502234028 | 73 | 329 | 3.0 | 7.0 | 0.00 | 0.00 | 0.00 | 17 | 1011.6 |
| 20260502232909 | 74 | 73 | 1.0 | 7.0 | 0.00 | 0.00 | 0.00 | 17 | 1011.7 |
| 20260502232416 | 75 | 332 | 1.0 | 7.0 | 0.00 | 0.00 | 0.00 | 17 | 1011.7 |
| 20260502231230 | 74 | 31 | 1.0 | 6.0 | 0.00 | 0.00 | 0.00 | 16 | 1011.9 |
| 20260502230738 | 75 | 334 | 1.0 | 3.0 | 0.00 | 0.00 | 0.00 | 16 | 1012.0 |
| 20260502230231 | 74 | 315 | 2.0 | 7.0 | 0.00 | 0.00 | 0.00 | 17 | 1012.1 |
| 20260502225722 | 73 | 335 | 3.0 | 7.0 | 0.00 | 0.00 | 0.00 | 16 | 1012.2 |
| 20260502224613 | 74 | 332 | 1.0 | 7.0 | 0.00 | 0.00 | 0.00 | 17 | 1012.4 |
| 20260502224111 | 74 | 324 | 2.0 | 9.0 | 0.00 | 0.00 | 0.00 | 16 | 1012.5 |
| 20260502223605 | 74 | 356 | 3.0 | 9.0 | 0.00 | 0.00 | 0.00 | 16 | 1012.6 |
| 20260502223054 | 73 | 324 | 4.0 | 9.0 | 0.00 | 0.00 | 0.00 | 17 | 1012.7 |
| 20260502221925 | 74 | 356 | 3.0 | 8.0 | 0.00 | 0.00 | 0.00 | 17 | 1012.8 |
| 20260502220816 | 75 | 311 | 1.0 | 11.0 | 0.00 | 0.00 | 0.00 | 17 | 1013.1 |
| 20260502220257 | 75 | 344 | 1.0 | 11.0 | 0.00 | 0.00 | 0.00 | 16 | 1013.3 |
| 20260502215805 | 75 | 325 | 2.0 | 11.0 | 0.00 | 0.00 | 0.00 | 16 | 1013.4 |
| 20260502214630 | 75 | 258 | 1.0 | 4.0 | 0.00 | 0.00 | 0.00 | 13 | 1013.6 |